Location: Praha
(50.0830°N, 14.4670°E)
Time: 16:16:24
(UTC+02:00)

ISS - Pass Details

Date: 21 May 2020
Orbit: 417 x 420 km, 51.6° (Epoch: 25 May)

Event Time Altitude Azimuth Distance (km) Brightness Sun altitude
Rises 22:17:04 0° 265° (W) 2,363 0.6 -11.0°
Reaches altitude 10° 22:19:10 10° 268° (W) 1,500 -0.4 -11.2°
Maximum altitude 22:22:31 69° 352° (N) 453 -3.4 -11.5°
Drops below altitude 10° 22:25:54 10° 77° (ENE) 1,503 -1.2 -11.8°
Enters shadow 22:27:50 - 80° (E) 2,301 -0.3 -12.0°
